Regional Weather Roundup
Issued by NWS Newport/Morehead, NC

Current Version | Previous Version | Graphics & Text | Print | Product List | Glossary Off
Versions: 1 2 3 4 5 6 7 8 9 10 11 12 13 14 15 16 17 18 19 20 21 22 23 24 25 26 27 28 29 30 31 32 33 34 35 36 37 38 39 40 41 42 43 44 45 46 47 48 49 50

000
ASUS42 KMHX 181322
RWRMHX
WEATHER ROUNDUP FOR EASTERN NORTH CAROLINA
NATIONAL WEATHER SERVICE NEWPORT/MOREHEAD CITY NC
900 AM EDT FRI APR 18 2014

NOTE: "FAIR" INDICATES FEW OR NO CLOUDS BELOW 12,000 FEET
WITH NO SIGNIFICANT WEATHER AND/OR OBSTRUCTIONS TO VISIBILITY

NCZ015>017-031-032-045>047-102-103-181400-
NORTH COAST

CITY           SKY/WX    TMP DP  RH WIND       PRES   REMARKS
EDENTON        CLOUDY    47  41  79 N12       30.42F
ELIZABETH CITY CLOUDY    48  39  71 NE20      30.43S
KITTY HAWK     CLOUDY    46  43  88 N10G21    30.40S
MANTEO         CLOUDY    47  43  86 NE25G31   30.39F

$$

NCZ045>047-081-094-103-104-181400-
CENTRAL COAST

CITY           SKY/WX    TMP DP  RH WIND       PRES   REMARKS
FRISCO         CLOUDY    48  45  89 NE18G29   30.37R
SWANQUARTER      N/A     50 N/A N/A NE16G23   30.33S

$$

NCZ095-097-098-100-101-181400-
SOUTHERN COAST

CITY           SKY/WX    TMP DP  RH WIND       PRES   REMARKS
BEAUFORT       PTSUNNY   53  47  79 NE16G29   30.35F
CEDAR ISLAND     N/A     52 N/A N/A NE15G21   30.39S
JACKSONVILLE   SUNNY     48  42  80 N10       30.38S
NEWPORT          N/A     52  46  82 N12         N/A
PINEY ISLAND   CLOUDY    51  48  89 N14       30.37R
WILMINGTON     PTSUNNY   50  41  71 N10       30.35F


$$

NCZ011>013-027>030-043-044-078>080-089-090>093-098-181400-
COASTAL PLAIN

CITY           SKY/WX    TMP DP  RH WIND       PRES   REMARKS
AHOSKIE        MOSUNNY   44  37  77 NE7       30.45S
CLINTON        PTSUNNY   46  40  81 N8        30.41R
ELIZABETHTOWN  CLOUDY    46  40  78 N5        30.39R
GOLDSBORO      PTSUNNY   45  40  82 NE9       30.40S
GREENVILLE     SUNNY     45  39  81 NE12G17   30.41F
HAVELOCK       PTSUNNY   52  44  74 NE13      30.39S
KENANSVILLE    MOSUNNY   46  39  79 N14       30.41S
KINSTON        SUNNY     46  39  76 N12       30.41F
NEW BERN       CLOUDY    48  43  81 NE13      30.39F
RICHLANDS      SUNNY     46  39  76 NE10      30.39S
ROANOKE RAPIDS NOT AVBL
ROCKY MOUNT      N/A    N/A N/A N/A MISG      30.43F
WASHINGTON     CLOUDY    44  40  85 NE10      30.42S
WHITEVILLE     CLOUDY    47  40  74 NE5       30.36R

$$

AMZ130-135-150-152-154-156-158-170-250-252-270-ANZ085-086-088-633-658-670-181400-
MARINE OBSERVATIONS

STATION/POSITION TIME  TEMP    WIND        PRES    WAVE   SWELL
                       AIR SEA DIR/SP/G            HT/PER HT/PER
                 (UTC) (F)     (DEG/KT/KT) (MB)    (FT/S) (FT/S)
CHESAPEAKE LIGHT 1300   44      40/ 17/ 18 1031.4
BUOY 44014       1300   47 49   10/ 19/ 21 1028.8   10/ 9   8/ 9
DUCK             1300   45 51   10/ 18/ 22 1028.9
2E DUCK          1200      49                N/A     7/10   3/11
OREGON INLET     1300   46 50  360/ 19/ 24 1028.7
BUOY 44095       1300      48                N/A    10/10   5/11
HATTERAS CG      1300   49 55   20/ 20/ 27 1028.3
DIAMOND BUOY     NOT AVBL
CAPE LOOKOUT     1300   52      10/ 14/ 18 1027.6
BEAUFORT LAB     1300   51 57   10/ 13/ 18 1027.1
30 SE NEW RIVER  1300   53 62   30/ 21/ 25 1026.8    7/ 6   3/10
5 SE WRIGHTSVILL 1300   49 59   20/ 16/ 19 1027.2
FRYING PAN BUOY  1300   57 64   50/ 23/ 25 1025.4    7/ 6   3/10
BUOY 41001       NOT AVBL
BUOY 41002       NOT AVBL
BUOY 41004       NOT AVBL

$$



USA.gov is the U.S. government's official web portal to all federal, state and local government web resources and services.